Vancouver, WA
on Monday, January 7, 2013

Monday
Previous Day Next Day
Daily Summary
 ActualAverageRecord
Temperature
Mean Temperature °F 41°F  
Max Temperature 53°F 47°F 61°F (2002)
Min Temperature 39°F 35°F 10°F (1937)
Degree Days
Heating Degree Days 19    
Month to date heating degree days 203  
Since 1 July heating degree days 1751  
Cooling Degree Days 0    
Month to date cooling degree days 0  
Year to date cooling degree days 0  
Moisture
Dew Point 44°F   
Average Humidity 85    
Maximum Humidity 92    
Minimum Humidity 77    
Precipitation
Precipitation 0.08 in 0.19 in 1.65 in (1948)
Month to date precipitation 0.38 1.42  
Year to date precipitation 0.38 1.42  
Snow
Snow 0.00 in in in ()
Month to date snowfall 0.0  
Snow Depth 0.00 in   
Wind
Wind Speed 6 mph   
Max Wind Speed 15 mph   
Max Gust Speed 25 mph   
Visibility 10 miles   
Events Rain   

Key: T is trace of precipitation, MM is missing value
Source: NWS Daily Summary
Time(PST)TemperatureDew PointHumidity Pressure Visibility Wind DirectionWind SpeedGust SpeedPrecipitationEvents Conditions
12:43 AM 39.2°F 37.4°F 93% 30.07 in 5.0 miles SE 6.9 mph - 0.04 in Rain Light Rain
12:53 AM 39.0°F 37.0°F 93% 30.07 in 5.0 miles ESE 6.9 mph - 0.05 in Rain Light Rain
1:12 AM 39.2°F 37.4°F 93% 30.06 in 8.0 miles ESE 8.1 mph - 0.01 in Rain Light Rain
1:53 AM 45.0°F 41.0°F 86% 30.07 in 10.0 miles SSE 6.9 mph - 0.02 in   Overcast
2:53 AM 45.0°F 41.0°F 86% 30.04 in 10.0 miles SSE 8.1 mph - 0.00 in   Overcast
3:53 AM 46.9°F 41.0°F 80% 30.03 in 10.0 miles South 8.1 mph - 0.00 in   Overcast
4:53 AM 46.9°F 42.1°F 83% 30.02 in 10.0 miles Variable 5.8 mph - N/A   Overcast
5:03 AM 46.4°F 42.8°F 87% 30.01 in 10.0 miles South 6.9 mph - 0.00 in Rain Light Rain
5:53 AM 46.9°F 43.0°F 86% 30.01 in 10.0 miles South 9.2 mph 19.6 mph 0.00 in Rain Light Rain
6:39 AM 48.2°F 42.8°F 82% 30.00 in 10.0 miles South 12.7 mph 25.3 mph 0.02 in Rain Light Rain
6:53 AM 48.0°F 43.0°F 83% 30.00 in 10.0 miles SSW 8.1 mph 17.3 mph 0.02 in Rain Light Rain
7:53 AM 48.0°F 44.1°F 86% 30.00 in 10.0 miles South 9.2 mph 18.4 mph 0.00 in   Overcast
8:25 AM 48.2°F 44.6°F 87% 30.02 in 10.0 miles South 11.5 mph 24.2 mph N/A   Overcast
8:50 AM 48.2°F 44.6°F 87% 30.03 in 10.0 miles Variable 5.8 mph 19.6 mph N/A   Overcast
8:53 AM 48.9°F 44.1°F 83% 30.04 in 10.0 miles South 9.2 mph 16.1 mph N/A   Overcast
9:05 AM 48.2°F 44.6°F 87% 30.04 in 10.0 miles SSW 9.2 mph 20.7 mph N/A   Overcast
9:32 AM 50.0°F 44.6°F 82% 30.05 in 10.0 miles South 5.8 mph 17.3 mph N/A   Overcast
9:53 AM 50.0°F 45.0°F 83% 30.07 in 10.0 miles SSW 11.5 mph - N/A   Overcast
10:53 AM 50.0°F 46.0°F 86% 30.09 in 10.0 miles SSW 8.1 mph 17.3 mph N/A   Overcast
11:53 AM 50.0°F 46.9°F 89% 30.09 in 9.0 miles South 6.9 mph 16.1 mph N/A   Overcast
12:00 PM 50.0°F 46.4°F 87% 30.09 in 10.0 miles South 8.1 mph 17.3 mph N/A   Overcast
12:12 PM 51.8°F 46.4°F 82% 30.09 in 10.0 miles SSW 9.2 mph 18.4 mph N/A   Overcast
12:19 PM 51.8°F 46.4°F 82% 30.09 in 10.0 miles SSW 6.9 mph 18.4 mph N/A   Overcast
12:53 PM 51.1°F 46.9°F 86% 30.10 in 10.0 miles SSW 6.9 mph - N/A   Overcast
1:53 PM 53.1°F 46.9°F 80% 30.11 in 10.0 miles South 5.8 mph - N/A   Overcast
2:10 PM 53.6°F 46.4°F 77% 30.12 in 10.0 miles SE 3.5 mph - N/A   Overcast
3:53 PM 53.1°F 46.0°F 77% 30.16 in 10.0 miles SSW 5.8 mph - N/A   Mostly Cloudy
4:53 PM 52.0°F 45.0°F 77% 30.15 in 10.0 miles SW 4.6 mph - N/A   Overcast
5:53 PM 51.1°F 45.0°F 80% 30.18 in 10.0 miles WNW 3.5 mph - N/A   Overcast
6:53 PM 48.9°F 44.1°F 83% 30.19 in 10.0 miles Calm Calm - N/A   Overcast
7:53 PM 48.0°F 44.1°F 86% 30.19 in 10.0 miles Calm Calm - N/A   Overcast
8:53 PM 46.9°F 43.0°F 86% 30.21 in 10.0 miles Calm Calm - N/A   Overcast
9:53 PM 45.0°F 42.1°F 90% 30.21 in 10.0 miles Calm Calm - N/A   Overcast
10:53 PM 44.1°F 42.1°F 93% 30.22 in 10.0 miles Calm Calm - N/A   Overcast
11:53 PM 45.0°F 42.1°F 90% 30.22 in 10.0 miles Calm Calm - N/A   Overcast
Moon Phase
Jan. 07 Jan. 11 Jan. 18 Jan. 26 Feb. 03
Sunrise:07:50 AM (PST) Moon Rise:03:17 AM (PST)1/7
Sunset:04:44 PM (PST) Moon Set:01:01 PM (PST)1/7

Copyright © 2014 The Weather Underground, Inc.